Weather History for KCKV - January, 2012

Change the Weather History Date:

Tuesday, January 10, 2012

  Actual Average Record
Temperature  
Mean Temperature 41 °F -  
Max Temperature 53 °F - 67 °F (1957)
Min Temperature 29 °F - -10 °F (1982)
Degree Days  
Heating Degree Days 24    
Month to date heating degree days 238  
Since 1 July heating degree days 1623  
Cooling Degree Days 0    
Month to date cooling degree days 0  
Moisture  
Dew Point 38 °F    
Average Humidity 70    
Maximum Humidity 96    
Minimum Humidity 44    
Precipitation  
Precipitation 0.28 in - 2.18 in (2008)
Month to date precipitation 0.33  
Sea Level Pressure  
Sea Level Pressure 29.91 in    
Wind  
Wind Speed 5 mph (East)    
Max Wind Speed 13 mph    
Max Gust Speed 16 mph    
Visibility 8 miles    
Events Rain    
T = Trace of Precipitation, MM = Missing Value Source: NWS Daily Summary

Daily Weather History Graph

Daily Weather History Graph

Search for Another Location

Airport or City:

Trip Planner

Search our weather history database for the weather conditions in past years. The results will help you decide how hot, cold, wet, or windy it might be!

Date:

Astronomy

Jan. 10, 2012 Rise Set
Actual Time 7:02 AM CST 4:52 PM CST
Civil Twilight 6:33 AM CST 5:20 PM CST
Nautical Twilight 6:01 AM CST 5:52 PM CST
Astronomical Twilight 5:30 AM CST 6:23 PM CST
Moon 6:40 PM CST (1/10) 7:42 AM CST (1/10)
Length of Visible Light 10h 46m
Length of Day
9h 50m
Full, 98% of the Moon is Illuminated
Jan 10
Full
Jan 16
Last Quarter
Jan 23
New
Jan 30
First Quarter
Feb 7
Full

Hourly Weather History & Observations

Time (CST) Temp. Windchill Dew Point Humidity Pressure Visibility Wind Dir Wind Speed Gust Speed Precip Events Conditions
12:52 AM 37.0 °F - 33.1 °F 86% 30.14 in 10.0 mi Calm Calm - N/A   Clear
1:52 AM 34.0 °F 31.0 °F 32.0 °F 92% 30.13 in 10.0 mi East 3.5 mph - N/A   Partly Cloudy
2:52 AM 35.1 °F 32.2 °F 32.0 °F 89% 30.13 in 10.0 mi South 3.5 mph - N/A   Clear
3:52 AM 33.1 °F - 30.9 °F 92% 30.13 in 9.0 mi Calm Calm - N/A   Clear
4:52 AM 34.0 °F - 30.9 °F 89% 30.12 in 9.0 mi Calm Calm - N/A   Clear
5:52 AM 30.9 °F 27.5 °F 28.9 °F 92% 30.11 in 7.0 mi NE 3.5 mph - N/A   Clear
6:52 AM 30.0 °F 26.5 °F 28.0 °F 92% 30.11 in 8.0 mi NNE 3.5 mph - N/A   Clear
8:52 AM 37.0 °F 34.5 °F 33.1 °F 86% 30.12 in 6.0 mi East 3.5 mph - N/A   Clear
9:52 AM 42.1 °F 37.1 °F 35.1 °F 76% 30.10 in 8.0 mi East 8.1 mph - N/A   Clear
10:52 AM 46.0 °F 43.9 °F 35.1 °F 66% 30.07 in 10.0 mi East 4.6 mph - N/A   Clear
12:52 PM 52.0 °F - 32.0 °F 47% 29.99 in 10.0 mi ESE 8.1 mph - N/A   Overcast
1:52 PM 52.0 °F - 30.9 °F 45% 29.96 in 10.0 mi East 10.4 mph - N/A   Overcast
2:52 PM 53.1 °F - 32.0 °F 45% 29.92 in 10.0 mi East 6.9 mph - N/A   Overcast
3:52 PM 51.1 °F - 35.1 °F 54% 29.90 in 10.0 mi ENE 8.1 mph - N/A   Overcast
4:52 PM 51.1 °F - 35.1 °F 54% 29.89 in 10.0 mi East 9.2 mph - N/A   Overcast
5:52 PM 48.0 °F - 39.0 °F 71% 29.89 in 10.0 mi ENE 8.1 mph - 0.00 in Rain Light Rain
6:19 PM 48.2 °F - 39.2 °F 71% 29.87 in 10.0 mi East 8.1 mph - 0.00 in   Overcast
6:50 PM 46.4 °F 42.4 °F 41.0 °F 81% 29.86 in 2.5 mi East 8.1 mph - 0.05 in Rain Rain
6:52 PM 46.0 °F 41.9 °F 41.0 °F 83% 29.87 in 2.5 mi East 8.1 mph - 0.05 in Rain Rain
6:59 PM 46.4 °F 42.4 °F 42.8 °F 87% 29.85 in 5.0 mi East 8.1 mph - 0.00 in Rain Light Rain
7:24 PM 46.4 °F 42.4 °F 42.8 °F 87% 29.84 in 10.0 mi East 8.1 mph - 0.00 in   Overcast
7:45 PM 46.4 °F 43.5 °F 42.8 °F 87% 29.83 in 10.0 mi East 5.8 mph - 0.00 in   Overcast
7:52 PM 46.0 °F 42.5 °F 42.1 °F 86% 29.84 in 10.0 mi East 6.9 mph - 0.00 in   Overcast
8:52 PM 46.9 °F - 43.0 °F 86% 29.80 in 10.0 mi East 5.8 mph - N/A   Overcast
9:20 PM 46.4 °F 43.5 °F 42.8 °F 87% 29.77 in 10.0 mi East 5.8 mph - N/A   Mostly Cloudy
9:52 PM 46.9 °F - 43.0 °F 86% 29.77 in 10.0 mi East 5.8 mph - N/A   Overcast
10:16 PM 46.4 °F 43.5 °F 42.8 °F 87% 29.75 in 10.0 mi ENE 5.8 mph - N/A   Overcast
10:44 PM 46.4 °F 42.9 °F 42.8 °F 87% 29.74 in 5.0 mi East 6.9 mph - 0.02 in Rain Rain
10:52 PM 46.9 °F - 44.1 °F 90% 29.74 in 2.5 mi East 6.9 mph - 0.05 in Rain Rain
10:59 PM 46.4 °F 43.5 °F 44.6 °F 93% 29.73 in 5.0 mi East 5.8 mph - 0.00 in Rain Light Rain
11:08 PM 46.4 °F 44.3 °F 44.6 °F 93% 29.73 in 4.0 mi East 4.6 mph - 0.02 in Rain Rain
11:29 PM 46.4 °F 44.3 °F 44.6 °F 93% 29.72 in 6.0 mi East 4.6 mph - 0.03 in Rain Light Rain
11:52 PM 46.9 °F - 45.0 °F 93% 29.72 in 3.0 mi ESE 3.5 mph - 0.16 in Rain Rain